THORAD DELTA 1 DEB, 8142

Orbit data source: Space-Track

THORAD DELTA 1 DEB, 8142 is space debris in SSO originally from a launch on Fri, 15 Nov 1974 UTC launched from the Air Force Western Test Range (AFWTR). Debris objects in space refer to the collection of defunct objects orbiting the Earth. Examples of debris include non-operational satellites, rocket bodies, and fragments generated from explosions, collisions, or faulty payload assembly.

Loading next visibility...
Identifier
8142, 1974-089L
Orbit
SSO
Country
Flag of USUS
Related business
Manufacturer
Unknown
Mission
Spacecraft
Bus & Motor
Unknown
Mass
Unknown
Launch date (UTC)
1974-11-15 (51 years ago)
Launch vehicle
Unknown
Launch site
Air Force Western Test Range (AFWTR)
Object type
Payload
Rocket body
Debris
Shape & HBR
Unknown shape, 0.4 m
Radar Cross Section
Medium (>0.1 m² and <1 m²)

Expand to show TLE details & history
Last TLE update: 12 hours ago

TLE from 12 hours ago
0 THORAD DELTA 1 DEB
1 08142U 74089L   25287.31963281  .00023452  00000-0  10935+0 0  9993
2 08142 101.1326 192.3145 0458031  78.8596  31.9984 12.47397662251795
Epoch: 2025-10-14T07:40Z
TLE epoch observation values (Epoch: 2025-10-14T07:40:16.274Z)
Latitude
63.97076°
Longitude
-102.22965°
Altitude
1,186.052 km
Speed
7.404 km/s
True Right ascension
02h 23m 47s
True Declination
63° 50' 33"
Sunlit
Object was in full shadow at epoch
Visualization orbit readout
Latitude
Unknown
Longitude
Unknown
Altitude
Unknown
Speed
Unknown
Apparent Right ascension
Unknown
Apparent Declination
Unknown
Sunlit
N/A
Visualization observer readout
Local Sidereal Time
13:49:35
Azimuth
Unknown
Elevation
Unknown
Doppler factor
Unknown
Orbital elements
Apogee altitude
1,832.508 km
Perigee altitude
1,113.304 km
Semi-major axis
7,851.043 km
Eccentricity
0.0458
Inclination
101.1326°
RAAN
192.3145°
Arg. of periapsis
78.8596°
True anomaly
34.91999°
Mean anomaly
31.9984°
Eccentric anomaly
33.44475°
Mean motion
3.11998 °/min
Orbital period
115.39 mins
BSTAR
0.10935
Loading maneuver chart data...
Computing Atmospheric mass density...

Documentation

Showing up to 5 results
|